Location: Glencliff
(36.1226°N, 86.7183°W)
Time: 10:42:58
(UTC+00:00)

IDEFIX/ARIANE 42P - Pass Details

Date: 25 August 2019
Orbit: 786 x 802 km, 98.3° (Epoch: 20 October)

Event Time Altitude Azimuth Distance (km) Brightness Sun altitude
Rises 09:00:30 0° 21° (NNE) 3,302 6.7 -25.0°
Reaches altitude 10° 09:02:58 10° 29° (NNE) 2,371 5.9 -24.6°
Maximum altitude 09:07:53 40° 98° (E) 1,168 3.7 -23.8°
Enters shadow 09:12:05 14° 164° (SSE) 2,120 4.6 -23.1°
